Weather WX

World > North America > United States > North Carolina

Montreat, North Carolina Regional Weather

Lat: 35.65N, Lon: 82.3W
Wx Zone: NCZ053
Warning FLW WEATHER ALERT - (More Info. Click Here) Warning
Feedback

Montreat, NC Regional Weather

Expires:201907182200;;269794
ASUS42 KRAH 182110
RWRRAH
NORTH CAROLINA WEATHER ROUNDUP
NATIONAL WEATHER SERVICE RALEIGH NC
500 PM EDT THU JUL 18 2019

NOTE: "FAIR" INDICATES FEW OR NO CLOUDS BELOW 12,000 FEET WITH NO
SIGNIFICANT WEATHER AND/OR OBSTRUCTIONS TO VISIBILITY.


NCZ001-053-055-056-065-067-182200-
WESTERN NORTH CAROLINA
  
CITY           SKY/WX    TMP DP  RH WIND       PRES   REMARKS
ASHEVILLE      PTSUNNY   82  69  64 E5        30.07S                  
JEFFERSON      PTSUNNY   77  68  73 N6        30.11S                  
MORGANTON      FAIR      83  69  62 S3        30.03S                  
HICKORY        FAIR      88  70  55 W10       29.98F                  
WILKESBORO     NOT AVBL                                               
RUTHERFORDTON  FAIR      77  73  88 CALM      30.02S                  
MOUNT AIRY     HVY RAIN  74  71  90 S6        30.05R                  
BOONE          FAIR      74  65  74 CALM      30.12F                  
$$
 

SKY/WX - Weather  TMP - Temperature  DP - Dew Point  RH - Relative Humidity
WIND - Wind Direction/Speed PRES - Barometric Pressure VSB - Visibility
WCI - Wind Chill Index E13G22 Wind - East Wind 13 mph/Gusts of 22 mph